Tracking 18980 objects as of 17-Feb-2018
HD Live streaming from Space Station
objects crossing your sky now

COSMOS 1626

Track COSMOS 1626 now!
10-day predictions
COSMOS 1626 is classified as:


NORAD ID: 15494
Int'l Code: 1985-009A
Perigee: 503.6 km
Apogee: 504.5 km
Inclination: 82.5 °
Period: 94.6 minutes
Semi major axis: 6875 km
RCS: 7.281 m2 (large)
Launch date: January 24, 1985
Source: Commonwealth of Independent States (former USSR) (CIS)
Launch site: PLESETSK MISSILE AND SPACE COMPLEX (PKMTR)
aabbcc
Your satellite tracking list
Your tracking list is empty




NASA's NSSDC Master Catalog

Two Line Element Set (TLE):
1 15494U 85009A   18047.90551927 +.00000956 +00000-0 +39322-4 0  9996
2 15494 082.4813 004.7493 0000714 301.8074 058.3093 15.22962442805720
Source of the keplerian elements: AFSPC